Tracking 29892 objects as of 21-Nov-2024
HD Live streaming from Space Station
objects crossing your sky now

COSMOS 1992

Track COSMOS 1992 now!
10-day predictions
COSMOS 1992 is classified as:


NORAD ID: 19769
Int'l Code: 1989-005A
Perigee: 764.1 km
Apogee: 796.8 km
Inclination: 74.0 °
Period: 100.3 minutes
Semi major axis: 7151 km
RCS: 2.1348 m2 (large)
Launch date: January 26, 1989
Source: Commonwealth of Independent States (former USSR) (CIS)
Launch site: PLESETSK MISSILE AND SPACE COMPLEX (PKMTR)
Your satellite tracking list
Your tracking list is empty




NASA's NSSDC Master Catalog

Two Line Element Set (TLE):
1 19769U 89005A   24325.65169792  .00000307  00000-0  11542-3 0  9991
2 19769  74.0465 220.1563 0022848 210.2103 149.7734 14.35521095874539
Source of the keplerian elements: AFSPC